005  
ASUS41 KRLX 201010  
RWRRLX  
REGIONAL WEATHER ROUNDUP  
NATIONAL WEATHER SERVICE CHARLESTON WV  
500 AM EST THU FEB 20 2020  
 
NOTE: "FAIR" INDICATES FEW OR NO CLOUDS BELOW 12,000 FEET WITH NO  
SIGNIFICANT WEATHER AND/OR S TO VISIBILITY
.  
 
WVZ003-201100-  
NORTHERN PANHANDLE OF WEST VIRGINIA  
 
CITY SKY/WX TMP DP RH WIND PRES REMARKS
 
WHEELING FAIR 24 11 57 CALM 30.44R  

 
 
WVZ009-201100-  
NORTHWEST WEST VIRGINIA  
 
CITY SKY/WX TMP DP RH WIND PRES REMARKS
 
PARKERSBURG FAIR 28 17 63 N3 30.46R  

 
 
WVZ006-201100-  
WESTERN WEST VIRGINIA  
 
CITY SKY/WX TMP DP RH WIND PRES REMARKS
 
HUNTINGTON FAIR 32 22 66 CALM 30.44S  

 
 
WVZ015-201100-  
WEST CENTRAL WEST VIRGINIA  
 
CITY SKY/WX TMP DP RH WIND PRES REMARKS
 
CHARLESTON FAIR 30 26 85 CALM 30.43R  

 
 
WVZ022-031-201100-  
NORTH CENTRAL WEST VIRGINIA  
 
CITY SKY/WX TMP DP RH WIND PRES REMARKS
 
MORGANTOWN FAIR 25 18 74 CALM 30.44R  
CLARKSBURG FAIR 26 18 71 N5 30.42S  
BUCKHANNON FAIR 25 23 93 CALM 30.39S  

 
 
WVZ025-035-042-045-201100-  
SOUTHERN WEST VIRGINIA  
 
CITY SKY/WX TMP DP RH WIND PRES REMARKS
 
BECKLEY FAIR 28 22 78 CALM 30.35R  
LOGAN CLOUDY 32 19 59 NE6 30.39R  
PINEVILLE N/A 32 29 88 MISG 30.43R  
BLUEFIELD CLOUDY 27 21 78 CALM 30.32R  
LEWISBURG FAIR 26 23 89 CALM 30.36R  

 
 
WVZ047-201100-  
NORTHERN MOUNTAINS OF WEST VIRGINIA  
 
CITY SKY/WX TMP DP RH WIND PRES REMARKS
 
ELKINS FAIR 23 19 85 CALM 30.37F  

 
 
WVZ052-201100-  
EASTERN PANHANDLE OF WEST VIRGINIA  
 
CITY SKY/WX TMP DP RH WIND PRES REMARKS
 
MARTINSBURG FAIR 31 16 54 N6 30.42R  
PETERSBURG FAIR 25 21 85 CALM 30.41F  

 
 
SOUTHEAST OHIO/NORTHEAST KENTUCKY  
 
CITY SKY/WX TMP DP RH WIND PRES REMARKS
 
ATHENS FAIR 27 21 77 CALM 30.47R  
ASHLAND FAIR 30 24 78 N3 30.48R  

 
 
 
CLICK HERE TO GO TO PREVIOUS BULLETINS.

The Nexlab WV Page
The Nexlab OH Page
The Nexlab KY Page
The Nexlab VA Page Main Text Page